Regional Weather Roundup
Issued by NWS

Home | Current Version | Previous Version | Graphics & Text | Print | Product List | Glossary On
Versions: 1 2 3 4 5 6 7 8 9 10 11 12 13 14 15 16 17 18 19 20 21 22 23 24 25 26 27 28 29 30 31 32 33 34 35 36 37 38 39 40 41 42 43 44 45 46 47 48 49 50
000
ASUS45 KABQ 312310
RWRNM
WEATHER ROUNDUP FOR NEW MEXICO
NATIONAL WEATHER SERVICE ALBUQUERQUE NM
400 PM MST SAT JAN 31 2015

NOTE: "FAIR" MEANS FEW OR NO CLOUDS BELOW 12,000 FEET AGL WITH NO
       SIGNIFICANT WEATHER OR OBSTRUCTIONS TO VISION.

      THIS PRODUCT IS RELEASED AS TWO VERSIONS.  ONE VERSION NEAR
      THE TOP OF THE HOUR CONTAINING PRELIMINARY DATA FROM ALBUQUERQUE
      AND OTHER STATIONS.  A FINAL VERSION WITH ADDITIONAL DATA IS
      ISSUED ABOUT 10 MINUTES AFTER THE HOUR.

NMZ501-503-504-510>518-010000-
NORTHWEST PLATEAU/NORTHCENTRAL MOUNTAINS

CITY           SKY/WX    TMP DP  RH WIND       PRES   REMARKS
FARMINGTON     CLOUDY    39  35  86 W13       29.89R WCI  31
LOS ALAMOS     FOG       31  31 100 CALM      29.87S VSB 1/4
SANTA FE       CLOUDY    34  31  88 W7        29.86S WCI  28
TAOS           CLOUDY    32  28  86 W10       29.85F WCI  24
ANGEL FIRE     MOCLDY    32  28  86 W15G21    29.79F WCI  22

$$
NMZ402-403-502-505>509-010000-
WESTCENTRAL MOUNTAINS/SOUTHWEST MOUNTAINS

CITY           SKY/WX    TMP DP  RH WIND       PRES   REMARKS
GALLUP         PTSUNNY   40  35  83 CALM      29.90S
GRANTS         CLOUDY    39  35  83 W5        29.90F
SILVER CITY    CLOUDY    46  41  81 SW10      29.90S

$$
NMZ407-409-411-412-010000-
SOUTHERN DESERTS

CITY           SKY/WX    TMP DP  RH WIND       PRES   REMARKS
LORDSBURG      CLOUDY    50  45  81 CALM      29.88R
DEMING         CLOUDY    51  47  86 SW6       29.87S
LAS CRUCES     CLOUDY    51  44  77 W7        29.88S
HOLLOMAN AFB   CLOUDY    49  45  85 S5        29.86S
ALAMOGORDO     CLOUDY    50  45  81 S3        29.88S
T OR C         CLOUDY    49  43  80 VRB3      29.85R

$$
NMZ519>523-010000-
CENTRAL VALLEYS/CENTRAL HIGHLANDS

CITY           SKY/WX    TMP DP  RH WIND       PRES   REMARKS
ALBUQUERQUE    PTSUNNY   41  35  79 CALM      29.89S
DOUBLE EAGLE   PTSUNNY   36  32  87 CALM      29.90S
MORIARTY ARPT  MOCLDY    42  35  75 W7        29.87S
CLINES CORNERS CLOUDY    34  32  92 W15       29.82S WCI  24
BELEN          MOCLDY    43  38  82 NE7       29.88S
SOCORRO        CLOUDY    47  40  79 CALM      29.87S

$$
NMZ524>526-539-540-010000-
SOUTHCENTRAL MOUNTAINS

CITY           SKY/WX    TMP DP  RH WIND       PRES   REMARKS
RUIDOSO        PTSUNNY   45  36  70 SW22      29.87R

$$
NMZ527>531-010000-
NORTHEAST HIGHLANDS/NORTHEAST PLAINS

CITY           SKY/WX    TMP DP  RH WIND       PRES   REMARKS
LAS VEGAS      PTSUNNY   36  31  82 N7        29.77S WCI  30
RATON          CLOUDY    33  29  85 S3        29.75F
CLAYTON        CLOUDY    42  35  76 S14       29.75F

$$
NMZ532>537-010000-
EASTCENTRAL PLAINS

CITY           SKY/WX    TMP DP  RH WIND       PRES   REMARKS
TUCUMCARI      CLOUDY    44  39  82 SW12      29.79F
CANNON AFB     NOT AVBL
CLOVIS AIRPORT CLOUDY    41  39  93 SW7       29.83S

$$
NMZ028-029-538-010000-
SOUTHEAST PLAINS

CITY           SKY/WX    TMP DP  RH WIND       PRES   REMARKS
ROSWELL        CLOUDY    46  41  82 E6        29.83S
ARTESIA        SUNNY     50  48  93 SE14      29.82F
CARLSBAD       PTSUNNY   49  43  80 S6        29.83F
HOBBS          FOG       46  46 100 S5        29.85F VSB 1


$$



USA.gov is the U.S. government's official web portal to all federal, state and local government web resources and services.